Location: Navarre
(52.9016°N, 113.4144°W)
Time: 13:18:40
(UTC+00:00)

Envisat - Pass Details

Date: 04 December 2021
Orbit: 764 x 766 km, 98.2° (Epoch: 23 January)

Event Time Altitude Azimuth Distance (km) Brightness Sun altitude
Rises 00:08:18 0° 184° (S) 3,222 6.7 -7.0°
Reaches altitude 10° 00:10:43 10° 192° (SSW) 2,301 6.1 -7.3°
Maximum altitude 00:15:31 42° 263° (W) 1,088 4.5 -7.9°
Drops below altitude 10° 00:20:22 10° 334° (NNW) 2,317 5.5 -8.6°
Sets 00:22:48 0° 341° (NNW) 3,248 6.2 -8.9°
